This is the latest recevied weather packets stored in our database for station/object VA3ZFM-10. If no packets are shown the sender has not sent any weather packets the latest 10 day(s).
| Time | Temp. | Humidity | Pressure | Rain* | Wind** | Luminosity | Snow |
|---|---|---|---|---|---|---|---|
| 1777842366 | 12.78° C | 34% | 1005.8 hPa | 0 mm | - | - | - |
| 1777842062 | 12.78° C | 34% | 1005.8 hPa | 0 mm | - | - | - |
| 1777841759 | 12.78° C | 34% | 1005.8 hPa | 0 mm | - | - | - |
| 1777841455 | 12.22° C | 33% | 1006 hPa | 0 mm | - | - | - |
| 1777841152 | 11.67° C | 34% | 1005.9 hPa | 0 mm | - | - | - |
| 1777840849 | 11.67° C | 35% | 1005.9 hPa | 0 mm | - | - | - |
| 1777840546 | 12.22° C | 35% | 1006.1 hPa | 0 mm | - | - | - |
| 1777840243 | 11.67° C | 34% | 1006.1 hPa | 0 mm | - | - | - |
| 1777839941 | 12.22° C | 34% | 1006.1 hPa | 0 mm | - | - | - |
| 1777839639 | 12.22° C | 34% | 1006.2 hPa | 0 mm | - | - | - |
| 1777839337 | 12.78° C | 33% | 1006.2 hPa | 0 mm | - | - | - |
| 1777839034 | 11.67° C | 34% | 1006.3 hPa | 0 mm | - | - | - |
| 1777838730 | 12.22° C | 33% | 1006.4 hPa | 0 mm | - | - | - |
| 1777838427 | 11.67° C | 34% | 1006.3 hPa | 0 mm | - | - | - |
| 1777838124 | 11.67° C | 34% | 1006.4 hPa | 0 mm | - | - | - |
| 1777837821 | 12.78° C | 31% | 1006.4 hPa | 0 mm | - | - | - |
| 1777837518 | 12.78° C | 32% | 1006.5 hPa | 0 mm | - | - | - |
| 1777837218 | 12.22° C | 33% | 1006.7 hPa | 0 mm | - | - | - |
| 1777836915 | 11.11° C | 34% | 1006.5 hPa | 0 mm | - | - | - |
| 1777836610 | 11.67° C | 33% | 1006.8 hPa | 0 mm | - | - | - |
| 1777836306 | 12.22° C | 32% | 1006.9 hPa | 0 mm | - | - | - |
| 1777836002 | 12.22° C | 31% | 1007.1 hPa | 0 mm | - | - | - |
| 1777835700 | 11.67° C | 32% | 1007.1 hPa | 0 mm | - | - | - |
| 1777835395 | 11.67° C | 32% | 1007.2 hPa | 0 mm | - | - | - |
| 1777835093 | 11.67° C | 33% | 1007.1 hPa | 0 mm | - | - | - |
* Rain latest hour (hover to see other rain measurements)
** Current wind speed in m/s (hover to see current wind gust speed)